Weather in Karabalta

Kyrgyzstan     42°49′11″N   73°50′38″E
temp.,
°C
wind,
m/s
gust,
m/s
humid.,
%
clouds,
%
prec.,
mm/h
press.,
hPa
HPBL,
m
23 january, sat
sat2300:00−11nne2298100 3.3 1040201
03:00−12e239599 0.6 1040109
06:00−13se338398 0.6 104050
09:00−13se1286100 0.3 104365
12:00−9ene2483100 0.2 1039309
15:00−10nne3385100 0.3 1039290
18:00−11ese2389100 0.4 103861
21:00−10s2269100 0.0 104125
24 january, sun
sun2400:00−11wsw1160100 0.0 104124
03:00−12ssw126377 0.0 104122
06:00−11sse236074 0.0 104227
09:00−10ese2375100 0.0 104348
12:00−8s127075 0.0 1042154
15:00−6ene349057 0.1 1039416
18:00−9se228857 0.2 103924
21:00−9se238099 0.0 103921
25 january, mon
mon2500:00−10ese227398 0.0 103821
03:00−9se226734 0.0 103722
06:00−10se12641 0.0 103721
09:00−10sse12630 0.0 103622
12:00−6e11760 0.0 103588
15:00−5nne11840 0.0 1033111
18:00−9ese118113 0.0 103321
21:00−9se12680 0.0 103521
26 january, tue
tue2600:00−10se11620 0.0 103521
03:00−10sse12590 0.0 103521
06:00−10se12551 0.0 103521
09:00−8sse12480 0.0 103621
12:00−5e12710 0.0 103472
15:00−4ne11770 0.0 103276
18:00−8ese11700 0.0 103321
21:00−8se12630 0.0 103521
27 january, wed
wed2700:00−9ssw11550 0.0 103422
03:00−9s12580 0.0 103522
06:00−9s12550 0.0 103522
09:00−7sse12440 0.0 103422
12:00−5e12690 0.0 103479
15:00−3ene11780 0.0 103284
18:00−5se12650 0.0 103121
21:00−5sse12550 0.0 103222